Location: Unspecified
(0.0000°N, 0.0000°E)
Time: 07:09:09
(UTC+00:00)

Vanguard 2 Rocket - Pass Details

Date: 15 October 2022
Orbit: 555 x 3321 km, 32.9° (Epoch: 06 December)

Event Time Altitude Azimuth Distance (km) Brightness Sun altitude
Rises 16:54:10 0° 253° (WSW) 5,776 12.9 12.7°
Reaches altitude 10° 16:57:40 10° 258° (WSW) 5,086 14.2 11.9°
Maximum altitude 17:13:09 50° 329° (NNW) 3,709 10.3 8.1°
Drops below altitude 10° 17:32:33 10° 40° (NE) 6,169 10.7 3.3°
Sets 17:37:26 0° 45° (NE) 7,027 10.9 2.1°
